This is the latest recevied weather packets stored in our database for station/object DL4ABR-6. If no packets are shown the sender has not sent any weather packets the latest 10 day(s).
| Time | Temp. | Humidity | Pressure | Rain* | Wind** | Luminosity | Snow |
|---|---|---|---|---|---|---|---|
| 1777752945 | 16.11° C | 68% | 1010.6 hPa | 0 mm | - | - | - |
| 1777752220 | 16.11° C | 67% | 1010.5 hPa | 0 mm | - | - | - |
| 1777751385 | 16.67° C | 64% | 1010.7 hPa | 0 mm | - | - | - |
| 1777750590 | 17.78° C | 63% | 1010.7 hPa | 0 mm | - | - | - |
| 1777749804 | 17.78° C | 60% | 1010.7 hPa | 0 mm | - | - | - |
| 1777749030 | 18.33° C | 60% | 1010.8 hPa | 0 mm | - | - | - |
| 1777748150 | 19.44° C | 57% | 1010.7 hPa | 0 mm | - | - | - |
| 1777747384 | 20.56° C | 54% | 1010.8 hPa | 0 mm | - | - | - |
| 1777746660 | 21.11° C | 51% | 1010.7 hPa | 0 mm | - | - | - |
| 1777745914 | 21.67° C | 50% | 1010.7 hPa | 0 mm | - | - | - |
| 1777745024 | 22.78° C | 45% | 1010.7 hPa | 0 mm | - | - | - |
| 1777744170 | 24.44° C | 43% | 1010.8 hPa | 0 mm | - | - | - |
| 1777743400 | 24.44° C | 38% | 1010.6 hPa | 0 mm | - | - | - |
| 1777742550 | 25.56° C | 36% | 1011 hPa | 0 mm | - | - | - |
| 1777741680 | 26.11° C | 35% | 1011.1 hPa | 0 mm | - | - | - |
| 1777740920 | 26.11° C | 34% | 1011 hPa | 0 mm | - | - | - |
| 1777740024 | 26.67° C | 34% | 1011.3 hPa | 0 mm | - | - | - |
| 1777739295 | 26.11° C | 33% | 1011.4 hPa | 0 mm | - | - | - |
| 1777738400 | 27.22° C | 34% | 1011.7 hPa | 0 mm | - | - | - |
| 1777737535 | 26.67° C | 32% | 1011.6 hPa | 0 mm | - | - | - |
| 1777736804 | 26.67° C | 32% | 1011.7 hPa | 0 mm | - | - | - |
| 1777735970 | 27.22° C | 31% | 1011.8 hPa | 0 mm | - | - | - |
| 1777735155 | 27.78° C | 31% | 1012.1 hPa | 0 mm | - | - | - |
| 1777734365 | 27.22° C | 30% | 1012.2 hPa | 0 mm | - | - | - |
| 1777733595 | 27.78° C | 31% | 1012.2 hPa | 0 mm | - | - | - |
* Rain since midnight (hover to see other rain measurements)
** Current wind speed in m/s (hover to see current wind gust speed)